User: anonymous   Login
Location: El Corozo
(10.5833°N, 66.9667°W)
Time: 12:09:23
(UTC+00:00)
Language:

Cosmos 990 Rocket - Orbit

View from above orbital plane
View from above orbital plane
View from above satellite
View from above satellite

Ground track
Ground track

The orbit data is extracted from the following two-line orbital elements,

1 10677U 78019B   24200.73942308  .00000726  00000-0  23397-3 0  9992
2 10677  74.0364 197.1056 0015309 349.2389  10.8437 14.40955630434856
Epoch (UTC): 18 July 2024 17:44:46
Eccentricity: 0.0015309
inclination: 74.0364°
perigee height: 744 km
apogee height: 766 km
right ascension of ascending node: 197.1056°
argument of perigee: 349.2389°
revolutions per day: 14.40955630
mean anomaly at epoch: 10.8437°
orbit number at epoch: 43485

The dashed part of the orbit path shows where the satellite is in the earth's shadow,  

DLR